Location: Unspecified
(35.7250°N, 0.0000°E)
Time: 17:05:24
(UTC+00:00)

Vanguard 1 Rocket - Pass Details

Date: 22 June 2019
Orbit: 651 x 4225 km, 34.3° (Epoch: 16 July)

Event Time Altitude Azimuth Distance (km) Brightness Sun altitude
Rises 22:29:46 0° 281° (W) 4,636 11.5 -26.9°
Reaches altitude 10° 22:33:46 10° 273° (W) 3,147 10.4 -27.3°
Enters shadow 22:38:31 30° 239° (WSW) 1,593 8.5 -27.6°
Maximum altitude 22:39:56 33° 212° (SSW) 1,378 - -27.7°
Drops below altitude 10° 22:44:12 10° 146° (SSE) 2,147 - -28.0°
Sets 22:46:26 0° 136° (SE) 2,972 - -28.2°
